Regional Weather Roundup
Issued by NWS

Home | Current Version | Previous Version | Text Only | Print | Product List | Glossary Off
Versions: 1 2 3 4 5 6 7 8 9 10 11 12 13 14 15 16 17 18 19 20 21 22 23 24 25 26 27 28 29 30 31 32 33 34 35 36 37 38 39 40 41 42 43 44 45 46 47 48 49 50

778
ASUS43 KMKX 230921
RWRWI

WISCONSIN REGIONAL WEATHER ROUNDUP
NATIONAL WEATHER SERVICE MILWAUKEE/SULLIVAN WI
400 AM CDT SAT JUL 23 2016

NOTE: "FAIR" INDICATES FEW OR NO CLOUDS BELOW 12,000 FEET WITH NO
SIGNIFICANT WEATHER AND/OR OBSTRUCTIONS TO VISIBILITY.

WIZ001-002-006>008-014>016-023>028-231000-
NORTHWEST WISCONSIN

CITY           SKY/WX    TMP DP  RH WIND       PRES   REMARKS
SUPERIOR ARPT  FOG       60  60 100 CALM      30.00S VSB 1/2
ASHLAND        CLEAR     63  61  93 W3        30.01R
HAYWARD        CLEAR     64  62  93 N3        30.02S FOG
SIREN          PTCLDY    66  66 100 CALM      30.00S
CUMBERLAND     MOCLDY    68  64  88 CALM      30.01R
RICE LAKE      MOCLDY    67  65  96 CALM      30.01S
CHETEK         MOCLDY    67  67 100 CALM      30.00S
LADYSMITH      MOCLDY    68  67  94 CALM      30.03S
EAU CLAIRE     CLEAR     67  66  97 CALM      29.97S FOG
MENOMONIE      CLEAR     68  66  94 CALM      29.98S
NEW RICHMOND   PTCLDY    65  64  97 CALM      29.99R
OSCEOLA        PTCLDY    67  67 100 CALM      30.01R
$$

WIZ003>005-009-010-017-018-231000-
NORTH CENTRAL WISCONSIN

CITY           SKY/WX    TMP DP  RH WIND       PRES   REMARKS
MANITOWISH WTR PTCLDY    58  58 100 CALM      30.03F FOG
ARBOR VITAE    CLEAR     62  60  94 CALM      30.03S
WOODRUFF       CLEAR     62  60  94 CALM      30.03S
RHINELANDER    FOG       63  61  93 CALM      30.04S VSB 3/4
EAGLE RIVER    PTCLDY    59  59 100 CALM      30.03S
LAND O LAKES   PTCLDY    56  56 100 CALM      30.05R FOG
PHILLIPS         N/A     64  64 100 CALM      30.02F FOG
TOMAHAWK       MOCLDY    61  60  96 CALM      30.04R
MEDFORD        CLOUDY    64  64 100 CALM      30.02S
MERRILL        CLOUDY    62  62 100 CALM      30.02F
$$

WIZ029-030-035-036-043>047-231000-
CENTRAL WISCONSIN

CITY           SKY/WX    TMP DP  RH WIND       PRES   REMARKS
WAUSAU         CLOUDY    67  66  97 CALM      29.99F
MOSINEE        PTCLDY    64  64 100 CALM      30.01F
MARSHFIELD     CLEAR     68  64  87 CALM      30.00F
STEVENS POINT  CLEAR     62  62  99 CALM      30.01S
WAUPACA        CLEAR     69  68  99 CALM      29.98F
WAUTOMA        PTCLDY    66  65  96 CALM      29.99S
WISC RAPIDS    CLEAR     67  64  90 CALM      30.00F FOG
CAMP DOUGLAS   FOG       63  63 100 N1        29.99S VSB 1/2
$$

WIZ011>013-019>022-031-037>040-048>050-231000-
NORTHEAST WISCONSIN

CITY           SKY/WX    TMP DP  RH WIND       PRES   REMARKS
ANTIGO         PTCLDY    63  63  99 CALM      30.03F
SHAWANO        FOG       68  66  95 CALM      29.99S VSB 1/2
OCONTO         MOCLDY   N/A N/A N/A CALM      29.97R
STURGEON BAY   MOCLDY    69  67  93 CALM      29.98S
GREEN BAY      CLEAR     66  66 100 CALM      29.97F
MANITOWOC      CLEAR     72  68  87 CALM      29.97S
APPLETON       PTCLDY    72  63  73 CALM      29.97F
CLINTONVILLE   CLEAR     68  64  88 CALM      29.99R
OSHKOSH        CLEAR     71  67  87 CALM      29.97F
$$

WIZ032>034-041-042-053>061-231000-
SOUTHWEST WISCONSIN

CITY           SKY/WX    TMP DP  RH WIND       PRES   REMARKS
LA CROSSE      CLOUDY    76  73  91 SE3       29.96F
SPARTA         CLEAR     64  64 100 CALM      29.99F
VIROQUA        MOCLDY    74  74 100 CALM      30.01R VSB 1
BOSCOBEL       FOG       77  76  96 CALM      29.98S VSB 1/4
PRAIRIE DU CHI MOCLDY    75  74  95 CALM      29.97S
PLATTEVILLE    CLOUDY    76  76 100 SE3       30.00S
$$

WIZ056-057-062-063-064-067-068-231000-
SOUTH CENTRAL WISCONSIN

CITY           SKY/WX    TMP DP  RH WIND       PRES   REMARKS
REEDSBURG      MOCLDY    71  71 100 CALM      29.99S FOG
BARABOO/DELLS  FOG       72  71  95 S5        30.00R VSB 1/4
LONE ROCK      FOG       75  75 100 CALM      29.99R VSB 1/4
MINERAL POINT  FOG       75  73  94 CALM      30.01S VSB 3/4
MADISON        FOG       74  73  97 CALM      29.98S VSB 1/2
MIDDLETON      MOCLDY    73  73 100 CALM      30.00S
WATERTOWN      CLOUDY    72  72 100 CALM      29.98S FOG
MONROE         CLOUDY    77  73  88 SW5       30.00S
JANESVILLE     PTCLDY    77  75  94 CALM      29.98S
$$

WIZ051-052-058>065-066-070>072-231000-
SOUTHEAST WISCONSIN

CITY           SKY/WX    TMP DP  RH WIND       PRES   REMARKS
MILWAUKEE      PTCLDY    76  72  87 CALM      29.97F
WAUKESHA       FOG       70  70 100 CALM      30.00S VSB<1/4
MILWAUKEE/TIMM CLEAR     73  68  83 CALM      29.98F
RACINE         CLEAR     76  74  93 W5        29.99S
BURLINGTON     FOG       72  72  99 CALM      29.99S VSB 1/2
KENOSHA        FOG       75  73  93 SW3       29.98F VSB 1/2
FOND DU LAC    FOG       71  69  93 S3        29.98F VSB 1/4
SHEBOYGAN      PTCLDY    70  68  93 W3        29.97S
WEST BEND      CLEAR     70  68  94 CALM      29.99S
JUNEAU         CLOUDY    71  71  99 CALM      30.00S FOG
$$

LSZ147-162-231000-
LAKE SUPERIOR

STATION/POSITION TIME  TEMP    WIND        PRES    WAVE
                       AIR SEA DIR/SP/G            HT/PER
                 (UTC) (F)     (DEG/KT/KT) (MB)    (FT/S)
W MID LAKE BUOY  0850   62 57  270/  6/  8 1014.6R   1
DEVILS ISLAND    0900   68     250/  6/  6 1015.4R
SAXON HARBOR     0800   66     200/  5/  7 1015.2S
$$

LMZ867-665-643>646-231000-
LAKE MICHIGAN

STATION/POSITION TIME  TEMP    WIND        PRES    WAVE
                       AIR SEA DIR/SP/G            HT/PER
                 (UTC) (F)     (DEG/KT/KT) (MB)    (FT/S)
CHAMBERS ISLAND  0800   66      CALM  /  4 1014.6R
S GREEN BAY BUOY 0900   74 74  230/  2/  2   N/A
N MID LAKE BUOY  0850   71 68  270/  6/  6 1013.6R   1/ 5
NORTHPORT PIER   0800   74     270/  4/  7 1014.2R
KEWAUNEE LAKESHO 0800   71     300/  5/  6 1014.2R
SHEBOYGAN LAKESH 0900   75     300/  2/  2 1014.7S
PORT WASHINGTON  0900   63     290/  3/  5 1015.6S
MILWAUKEE LAKESH 0810   72     200/  2/  2   N/A
S MID LAKE BUOY  0850   75 73  200/  4/  4 1014.4F   0
KENOSHA   LAKESH 0900   76     260/  3/  3 1014.9S
$$

TC  - TEMPERATURE IN CELSIUS
VSB - VISIBILITY IN STATUTE MILES
WCI - WIND CHILL INDEX
HX  - HEAT INDEX





USA.gov is the U.S. government's official web portal to all federal, state and local government web resources and services.